Meteopurmerend
purmerend
Purmerend - Baaienwijk



My webcam  My webcam


Onweer radar Meer informatie blitzortung!


Regen radar Meer informatie rain snow radar


Bezoek onze andere website:

CandyAppleRed WebdesignWebdesign Purmerend Candy Apple Red

MeteopurmerendBlog

Template documentation
and downloads



We konden geen weer-waarchuwingen ophalen. Ga rechtstreeks naar de Meteoalarm site : www.meteoalarm.eu en controleer daar .

15 daagse weersverwachting Silkeborg (DK)

  • Overzicht
  • Per uur
  • 15 dagen
  • Extra
  • Vergelijk
  • Kaarten
  • Dagkaart
  • Meer »
  • Info
  • Statistieken
  • Directe link
    Temp 6h Neerslag Wind  
 04:38     22:13    Daglengte: 17:35 Vandaag
08:00
19°
 
3
14:00
26°
 
3
20:00
22°
3.7 mm
2
 04:38     22:13    Daglengte: 17:35 Morgen
02:00
17°
 
3
08:00
18°
 
2
14:00
18°
30.2 mm
3
20:00
17°
24.3 mm
4
 04:39     22:13    Daglengte: 17:34 Dinsdag 28 Jun
02:00
13°
 
2
08:00
15°
11.4 mm
2
14:00
20°
 
3
20:00
19°
 
2
Locatie info
Region: Midtjylland
Latitude: 56.1703°N
Longitude: 9.5528°E
19 masl
Postcode: 8600
Temp/Neerslag /Baro Onweer/Dauwpunt
    Temp Baro 1h Neerslag Dauwpunt Wind UV Bewolking  
 04:38     22:13    Daglengte: 17:35 Vandaag
04:00
17°
1014.1 hPa   16.3°
2
Windvlaag: 1.5 m/s
67%
05:00
17°
1013.7 hPa   16.1°
2
Windvlaag: 1.6 m/s
80%
06:00
17°
1013.6 hPa   15.9°
2
Windvlaag: 2.1 m/s
61%
07:00
18°
1013.8 hPa   16.8°
2
Windvlaag: 2.3 m/s
61%
08:00
19°
1014.0 hPa   16.7°
3
Windvlaag: 3.5 m/s
63%
09:00
21°
1014.0 hPa   15.8°
3
Windvlaag: 3.8 m/s
67%
10:00
22°
1013.9 hPa   15.5°
3
Windvlaag: 4.9 m/s
76%
11:00
23°
1013.9 hPa   15.6°
4
Windvlaag: 4.8 m/s
80%
12:00
24°
1013.9 hPa   15.7°
3
Windvlaag: 4.8 m/s
70%
13:00
25°
1014.1 hPa
40%
15.6°
3
Windvlaag: 5.2 m/s
44%
14:00
26°
1013.7 hPa
78%
16.1°
3
Windvlaag: 5.8 m/s
33%
15:00
25°
1013.9 hPa 0.7 mm
81%
18.9°
3
Windvlaag: 7.1 m/s
68% warningclass
16:00
25°
1014.3 hPa 1.0 mm
82%
20.3°
3
Windvlaag: 7.4 m/s
63% warningclass
17:00
22°
1014.4 hPa 2.0 mm
82%
19.5°
2
Windvlaag: 7.6 m/s
64% warningclass
18:00
23°
1014.4 hPa
82%
20.2°
2
Windvlaag: 4.4 m/s
42% warningclass
19:00
23°
1014.6 hPa
82%
20.6°
2
Windvlaag: 5 m/s
57% warningclass
20:00
22°
1014.6 hPa
80%
20.2°
2
Windvlaag: 4.5 m/s
77%
21:00
21°
1014.9 hPa
59%
19.2°
1
Windvlaag: 3.6 m/s
21%
22:00
19°
1015.4 hPa
14%
17.4°
2
Windvlaag: 0.4 m/s
59%
23:00
19°
1015.8 hPa
14%
16.0°
2
Windvlaag: -2.1 m/s
22%
 04:38     22:13    Daglengte: 17:35 Morgen
00:00
18°
1015.9 hPa
14%
15.7°
3
Windvlaag: -3.4 m/s
59%
01:00
17°
1015.7 hPa
14%
14.6°
2
Windvlaag: -4.4 m/s
66%
02:00
17°
1015.2 hPa
14%
14.5°
3
Windvlaag: -3 m/s
70%
03:00
17°
1015.4 hPa
26%
15.0°
2
Windvlaag: -4 m/s
82%
04:00
17°
1015.1 hPa
77%
15.3°
2
Windvlaag: -3.3 m/s
86%
05:00
17°
1014.5 hPa
67%
15.4°
2
Windvlaag: -2.6 m/s
86%
06:00
17°
1014.2 hPa
23%
15.6°
2
Windvlaag: -2.1 m/s
86%
07:00
18°
1013.9 hPa
16%
15.9°
2
Windvlaag: -2.5 m/s
86%
08:00
18°
1014.0 hPa
72%
15.8°
2
Windvlaag: -3.1 m/s
86%
09:00
18°
1014.0 hPa 2.8 mm
82%
16.4°
2
Windvlaag: -3.8 m/s
86%
10:00
18°
1014.1 hPa 3.6 mm
82%
16.1°
2
Windvlaag: -3.9 m/s
86%
11:00
18°
1014.0 hPa 4.7 mm
82%
15.9°
2
Windvlaag: -4 m/s
86% warningclass
12:00
18°
1013.8 hPa 4.9 mm
82%
15.3°
3
Windvlaag: -1.9 m/s
86%
13:00
18°
1013.8 hPa 6.4 mm
82%
15.0°
3
Windvlaag: -4.5 m/s
86%
14:00
18°
1013.7 hPa 7.7 mm
82%
14.5°
3
Windvlaag: -3.1 m/s
86%
15:00
18°
1013.6 hPa 8.2 mm
82%
13.6°
4
Windvlaag: -4.4 m/s
86%
16:00
18°
1013.9 hPa 7.8 mm
82%
12.1°
4
Windvlaag: -4.4 m/s
86%
17:00
17°
1014.3 hPa 8.2 mm
82%
11.6°
4
Windvlaag: 0.2 m/s
86%
18:00
17°
1014.2 hPa
68%
10.9°
4
Windvlaag: 0.5 m/s
84%
19:00
17°
1014.4 hPa
31%
11.7°
4
Windvlaag: -0.6 m/s
59%
20:00
17°
1014.7 hPa
60%
13.0°
4
Windvlaag: -0 m/s
73%
21:00
16°
1015.4 hPa
56%
14.3°
4
Windvlaag: 0.9 m/s
47%
22:00
14°
1016.1 hPa
14%
11.1°
3
Windvlaag: 1 m/s
76%
23:00
14°
1017.5 hPa
21%
12.4°
2
Windvlaag: 2.2 m/s
94%
 04:39     22:13    Daglengte: 17:34 Dinsdag 28 Jun
00:00
14°
1017.6 hPa
21%
12.6°
2
Windvlaag: 3.4 m/s
92%
01:00
13°
1017.8 hPa
93%
12.6°
2
Windvlaag: 3.1 m/s
98%
02:00
13°
1017.7 hPa
82%
12.7°
2
Windvlaag: 3.3 m/s
95%
03:00
13°
1017.9 hPa 11.4 mm
100%
12.3°
2
Windvlaag: 3.5 m/s
88%
04:00
13°
1017.9 hPa
99%
12.5°
2
Windvlaag: 3.6 m/s
87%
05:00
13°
1018.1 hPa
28%
12.5°
2
Windvlaag: 3.9 m/s
62%
06:00
13°
1018.6 hPa
21%
12.2°
2
Windvlaag: 3.9 m/s
47%
07:00
14°
1018.8 hPa
21%
12.6°
2
Windvlaag: 4.1 m/s
44%
08:00
15°
1019.0 hPa
24%
12.6°
2
Windvlaag: 7.1 m/s
38%
09:00
16°
1019.4 hPa
24%
11.9°
3
Windvlaag: 6.7 m/s
5%
10:00
17°
1019.4 hPa
21%
11.9°
3
Windvlaag: 6.2 m/s
11%
11:00
19°
1019.6 hPa
21%
11.9°
3
Windvlaag: 5.9 m/s
14%
12:00
19°
1019.6 hPa
21%
11.0°
3
Windvlaag: 6.3 m/s
44%
13:00
20°
1019.5 hPa
21%
11.1°
3
Windvlaag: 5.9 m/s
20%
14:00
20°
1019.4 hPa
21%
13.1°
3
Windvlaag: 5.2 m/s
20%
15:00
21°
1019.5 hPa
21%
12.0°
3
Windvlaag: 4.6 m/s
20%
16:00
21°
1019.7 hPa
21%
10.4°
3
Windvlaag: 4.7 m/s
17%
17:00
21°
1019.7 hPa
21%
9.4°
3
Windvlaag: 4.6 m/s
3%
18:00
21°
1019.7 hPa
21%
8.7°
3
Windvlaag: 4.3 m/s
0%
19:00
20°
1019.5 hPa
21%
8.4°
3
Windvlaag: 3.6 m/s
0%
20:00
19°
1019.6 hPa
21%
9.0°
2
Windvlaag: 3.6 m/s
0%
21:00
18°
1019.9 hPa
21%
11.6°
2
Windvlaag: 3.5 m/s
3%
22:00
15°
1020.2 hPa
21%
9.7°
2
Windvlaag: 4.2 m/s
0%
23:00
14°
1020.3 hPa
21%
9.3°
1
Windvlaag: 2.3 m/s
0%
 04:40     22:13    Daglengte: 17:33 Woensdag 29 Jun
00:00
13°
1020.3 hPa
21%
9.3°
1
Windvlaag: 2.3 m/s
0%
01:00
13°
1020.4 hPa
21%
9.7°
1
Windvlaag: 1.9 m/s
6%
02:00
12°
1020.2 hPa
21%
8.8°
1
Windvlaag: 2.8 m/s
0%
03:00
13°
1022.0 hPa   -37.8°
1
Windvlaag: 3 m/s
0%
Temp/Neerslag /Baro Onweer/Dauwpunt
    Temp Baro Neerslag Dauwpunt Wind Bewolking  
 04:38     22:13    Daglengte: 17:35 Vandaag
05:00
17°
1013.7 hPa   16.1°
2
80%
08:00
19°
1014.0 hPa   16.7°
3
63%
11:00
23°
1013.9 hPa   15.6°
4
80%
14:00
26°
1013.7 hPa   16.1°
3
33%
17:00
22°
1014.4 hPa 3.7 mm 19.5°
2
64% warningclass
20:00
22°
1014.6 hPa   20.2°
2
77%
23:00
19°
1015.8 hPa   16.0°
2
22%
 04:38     22:13    Daglengte: 17:35 Morgen
02:00
17°
1015.2 hPa   14.5°
3
70%
05:00
17°
1014.5 hPa   15.4°
2
86%
08:00
18°
1014.0 hPa   15.8°
2
86%
11:00
18°
1014.0 hPa 11.2 mm 15.9°
2
86% warningclass
14:00
18°
1013.7 hPa 19.0 mm 14.5°
3
86%
17:00
17°
1014.3 hPa 24.3 mm 11.6°
4
86%
20:00
17°
1014.7 hPa   13.0°
4
73%
23:00
14°
1017.5 hPa   12.4°
2
94%
 04:39     22:13    Daglengte: 17:34 Dinsdag 28 Jun
02:00
13°
1017.7 hPa   12.7°
2
95%
05:00
13°
1018.1 hPa 11.4 mm 12.5°
2
62%
08:00
15°
1019.0 hPa   12.6°
2
38%
11:00
19°
1019.6 hPa   11.9°
3
14%
14:00
20°
1019.4 hPa   13.1°
3
20%
17:00
21°
1019.7 hPa   9.4°
3
3%
20:00
19°
1019.6 hPa   9.0°
2
0%
23:00
14°
1020.3 hPa   9.3°
1
0%
 04:40     22:13    Daglengte: 17:33 Woensdag 29 Jun
02:00
12°
1020.2 hPa   8.8°
1
0%
05:00
12°
1021.0 hPa 11.6 mm -10.1°
1
0%
08:00
15°
1020.8 hPa 11.6 mm -9.3°
2
0%
11:00
19°
1020.7 hPa 11.6 mm -9.8°
2
0%
14:00
22°
1019.9 hPa 11.6 mm -8.5°
3
0%
17:00
23°
1019.4 hPa 11.6 mm -7.8°
3
0%
20:00
20°
1018.9 hPa 11.6 mm -6.3°
3
0%
23:00
16°
1019.0 hPa 11.6 mm -9.7°
2
0%
 04:41     22:12    Daglengte: 17:31 Donderdag 30 Jun
02:00
14°
1018.4 hPa 11.6 mm -9.4°
2
0%
05:00
13°
1018.1 hPa 11.6 mm -9.4°
2
0%
08:00
16°
1017.8 hPa 11.6 mm -9.3°
2
0%
11:00
19°
1017.5 hPa 11.6 mm -9.9°
2
0%
14:00
24°
1016.3 hPa 11.6 mm -7.1°
2
0%
17:00
24°
1015.4 hPa 11.6 mm -5.7°
3
0%
20:00
20°
1014.9 hPa 11.6 mm -4.9°
2
0%
23:00
15°
1014.3 hPa 11.6 mm -5.8°
2
0%
 04:41     22:12    Daglengte: 17:31 Vrijdag 01 Jul
02:00
15°
1013.4 hPa 11.6 mm -5.6°
2
0%
05:00
15°
1012.1 hPa 11.6 mm -5.1°
2
0%
08:00
17°
1011.4 hPa 11.6 mm -5.2°
3
0%
11:00
20°
1010.7 hPa 11.6 mm -5.7°
3
0%
14:00
26°
Voelt als: 25.0°
1010.4 hPa 11.6 mm -5.1°
4
0%
17:00
23°
1010.5 hPa 6.3 mm -0.8°
5
0%
20:00
19°
1011.3 hPa 12.9 mm -3.8°
5
0%
23:00
16°
1011.0 hPa 6.6 mm -5.3°
3
0%
 04:42     22:11    Daglengte: 17:29 Zaterdag 02 Jul
02:00
14°
1011.2 hPa 7.6 mm -6.1°
3
0%
05:00
13°
1011.2 hPa 7.0 mm -7.0°
3
0%
08:00
17°
1012.1 hPa 12.9 mm -6.4°
3
0%
11:00
19°
1013.7 hPa 6.6 mm -8.0°
5
0%
14:00
20°
1013.8 hPa 13.0 mm -7.3°
6
0%
17:00
20°
1014.5 hPa 13.8 mm -6.6°
6
0%
20:00
18°
1014.4 hPa 7.1 mm -7.5°
6
0%
23:00
14°
1015.3 hPa 13.9 mm -7.6°
4
0%
 04:43     22:11    Daglengte: 17:28 Zondag 03 Jul
02:00
14°
1014.9 hPa 27.8 mm -8.0°
5
0%
08:00
15°
1014.0 hPa 27.8 mm -7.8°
5
0%
14:00
19°
1012.9 hPa 28.8 mm -9.2°
6
0%
20:00
16°
1012.6 hPa 31.9 mm -7.8°
6
0%
 04:44     22:10    Daglengte: 17:26 Maandag 04 Jul
02:00
12°
1010.8 hPa 32.5 mm 11.8°
4
1%
08:00
14°
1008.8 hPa 34.0 mm 11.8°
6
1%
14:00
18°
1009.8 hPa 36.8 mm 10.9°
9
1%
20:00
14°
1011.9 hPa 38.6 mm 11.2°
9
1%
 04:45     22:09    Daglengte: 17:24 Dinsdag 05 Jul
02:00
14°
1012.6 hPa 39.1 mm 11.3°
9
1%
08:00
15°
1014.0 hPa 39.4 mm 11.0°
8
1%
14:00
18°
1015.7 hPa 39.7 mm 11.7°
9
1%
20:00
16°
1016.1 hPa 41.1 mm 13.9°
7
1%
 04:46     22:08    Daglengte: 17:22 Woensdag 06 Jul
02:00
13°
1014.4 hPa 0.2 mm 10.9°
3
54%
08:00
15°
1014.2 hPa 0.5 mm 12.6°
4
61%
14:00
19°
1014.7 hPa 0.8 mm 13.9°
5
60%
20:00
17°
1014.1 hPa 0.9 mm 13.3°
4
61%
 04:48     22:08    Daglengte: 17:20 Donderdag 07 Jul
02:00
13°
1014.0 hPa 0.4 mm 11.5°
3
48%
08:00
15°
1013.3 hPa 0.3 mm 12.8°
3
54%
14:00
19°
1013.6 hPa 1.0 mm 13.3°
5
57%
20:00
17°
1013.5 hPa 0.3 mm 12.3°
5
57%
 04:49     22:07    Daglengte: 17:18 Vrijdag 08 Jul
02:00
12°
1013.8 hPa 0.2 mm 10.5°
3
48%
08:00
15°
1013.9 hPa 0.2 mm 11.7°
4
53%
14:00
19°
1014.2 hPa 0.5 mm 12.5°
4
56%
20:00
17°
1013.5 hPa 0.8 mm 12.3°
4
56%
 04:50     22:06    Daglengte: 17:16 Zaterdag 09 Jul
02:00
12°
1013.6 hPa 0.1 mm 10.5°
3
48%
08:00
15°
1013.5 hPa 0.1 mm 11.7°
4
48%
14:00
19°
1013.8 hPa 0.3 mm 12.4°
5
56%
20:00
17°
1013.4 hPa 0.5 mm 12.4°
4
58%
 04:51     22:05    Daglengte: 17:14 Zondag 10 Jul
02:00
12°
1012.8 hPa 0.2 mm 10.5°
3
52%
08:00
15°
1012.1 hPa 0.2 mm 12.0°
3
56%
14:00
20°
1012.2 hPa 0.6 mm 12.6°
4
55%
20:00
17°
1011.5 hPa 1.2 mm 12.5°
3
64%
 04:53     22:04    Daglengte: 17:11 Maandag 11 Jul
02:00
13°
1011.1 hPa 0.1 mm 10.9°
2
56%
  CAPE Lifted Index Hail Supercell Tornado SRH 3km CL BTM PRES CL TOP PRES Swiss DWD icon SMHI TS
 04:38     22:13    Daglengte: 17:35 Vandaag
04:00 71 J/kg -2.8 K 0 % 0 % 0 % 0 m²/s² 0 0 -1.6 3
05:00 318 J/kg -2.3 K 0 % 0 % 0 % 0 m²/s² 0 0 -1.25 3
06:00 355 J/kg -1.9 K 0 % 0 % 0 % 0 m²/s² 0 0 -0.76 3
07:00 277 J/kg -2.3 K 0 % 0 % 0 % 0 m²/s² 0 0 -1.49 3
08:00 598 J/kg -2.7 K 0 % 0 % 0 % 0 m²/s² 0 0 -2.04 3
09:00 902 J/kg -3.6 K 0 % 0 % 0 % 0 m²/s² 0 0 -2.97 3
10:00 924 J/kg -3.6 K 0 % 0 % 0 % 0 m²/s² 0 0 -2.76 3
11:00 888 J/kg -3.5 K 0 % 0 % 0 % 0 m²/s² 0 0 -2.54 3
12:00 862 J/kg -3.2 K 0 % 0 % 0 % 0 m²/s² 0 0 -2.48 3
13:00 879 J/kg -3.3 K 0 % 0 % 0 % 0 m²/s² 0 0 -2.67 80
14:00 1050 J/kg -3.7 K 0 % 0 % 0 % 0 m²/s² 0 0 -2.98 80
15:00 1479 J/kg -4.7 K 0 % 0 % 0 % 0 m²/s² 0 0 -3.71 3
16:00 1773 J/kg -5.9 K 0 % 0 % 0 % 0 m²/s² 0 0 -4.64 3
17:00 1930 J/kg -5.9 K 0 % 0 % 0 % 0 m²/s² 0 0 -4.43 81
18:00 1594 J/kg -4.8 K 0 % 0 % 0 % 0 m²/s² 0 0 -4.08 95
19:00 694 J/kg -3.3 K 0 % 0 % 0 % 0 m²/s² 0 0 -3.3 95
20:00 366 J/kg -2.6 K 0 % 0 % 0 % 0 m²/s² 0 0 -2.3 80
21:00 523 J/kg -2.4 K 0 % 0 % 0 % 0 m²/s² 0 0 -1.68 2
22:00 417 J/kg -2.4 K 0 % 0 % 0 % 0 m²/s² 0 0 -2.01 3
23:00 0 J/kg -2.1 K 0 % 0 % 0 % 0 m²/s² 0 0 -1.62 45
 04:38     22:13    Daglengte: 17:35 Morgen
00:00 0 J/kg -2.3 K 0 % 0 % 0 % 0 m²/s² 0 0 -1.64 45
01:00 6 J/kg -2.0 K 0 % 0 % 0 % 0 m²/s² 0 0 -1.46 3
02:00 0 J/kg -0.8 K 0 % 0 % 0 % 0 m²/s² 0 0 0.31 3
03:00 0 J/kg -0.6 K 0 % 0 % 0 % 0 m²/s² 0 0 0.21 3
04:00 2 J/kg -0.5 K 0 % 0 % 0 % 0 m²/s² 0 0 0.25 80
05:00 1 J/kg -0.9 K 0 % 0 % 0 % 0 m²/s² 0 0 0.15 80
06:00 1 J/kg -0.4 K 0 % 0 % 0 % 0 m²/s² 0 0 0.8 45
07:00 1 J/kg -0.1 K 0 % 0 % 0 % 0 m²/s² 0 0 1.07 3
08:00 1 J/kg -0.7 K 0 % 0 % 0 % 0 m²/s² 0 0 0.26 45
09:00 0 J/kg -1.4 K 0 % 0 % 0 % 0 m²/s² 0 0 -0.86 81
10:00 4 J/kg 1.1 K 0 % 0 % 0 % 0 m²/s² 0 0 1.19 61
11:00 0 J/kg -1.3 K 0 % 0 % 0 % 0 m²/s² 0 0 -0.43 95
12:00 0 J/kg -1.7 K 0 % 0 % 0 % 0 m²/s² 0 0 -1.25 80
13:00 2 J/kg -0.8 K 0 % 0 % 0 % 0 m²/s² 0 0 -0.32 61
14:00 4 J/kg -0.2 K 0 % 0 % 0 % 0 m²/s² 0 0 -0.2 80
15:00 3 J/kg -0.3 K 0 % 0 % 0 % 0 m²/s² 0 0 -0.21 80
16:00 5 J/kg -0.3 K 0 % 0 % 0 % 0 m²/s² 0 0 -0.03 80
17:00 3 J/kg 0.4 K 0 % 0 % 0 % 0 m²/s² 0 0 1.27 80
18:00 2 J/kg 2.7 K 0 % 0 % 0 % 0 m²/s² 0 0 3.99 3
19:00 2 J/kg 4.2 K 0 % 0 % 0 % 0 m²/s² 0 0 6.24 3
20:00 0 J/kg 4.7 K 0 % 0 % 0 % 0 m²/s² 0 0 6.8 3
21:00 0 J/kg 4.4 K 0 % 0 % 0 % 0 m²/s² 0 0 6.71 3
22:00 0 J/kg 5.7 K 0 % 0 % 0 % 0 m²/s² 0 0 7.47 3
23:00 0 J/kg 7.3 K 0 % 0 % 0 % 0 m²/s² 0 0 8.08 3
 04:39     22:13    Daglengte: 17:34 Dinsdag 28 Jun
00:00 0 J/kg 8.0 K 0 % 0 % 0 % 0 m²/s² 0 0 8.75 3
01:00 0 J/kg 6.8 K 0 % 0 % 0 % 0 m²/s² 0 0 7.79 3
02:00 0 J/kg 5.8 K 0 % 0 % 0 % 0 m²/s² 0 0 6.94 3
03:00 0 J/kg 5.9 K 0 % 0 % 0 % 0 m²/s² 0 0 7.49 61
04:00 0 J/kg 6.6 K 0 % 0 % 0 % 0 m²/s² 0 0 8.7 61
05:00 0 J/kg 6.7 K 0 % 0 % 0 % 0 m²/s² 0 0 8.41 2
06:00 0 J/kg 5.8 K 0 % 0 % 0 % 0 m²/s² 0 0 7.39 2
07:00 0 J/kg 4.6 K 0 % 0 % 0 % 0 m²/s² 0 0 6.61 2
08:00 18 J/kg 3.8 K 0 % 0 % 0 % 0 m²/s² 0 0 6.98 3
09:00 27 J/kg 4.0 K 0 % 0 % 0 % 0 m²/s² 0 0 9.31 2
10:00 90 J/kg 5.3 K 0 % 0 % 0 % 0 m²/s² 0 0 10.1 1
11:00 130 J/kg 6.5 K 0 % 0 % 0 % 0 m²/s² 0 0 11.06 2
12:00 70 J/kg 8.0 K 0 % 0 % 0 % 0 m²/s² 0 0 14 2
13:00 87 J/kg 8.1 K 0 % 0 % 0 % 0 m²/s² 0 0 15.18 1
14:00 104 J/kg 7.5 K 0 % 0 % 0 % 0 m²/s² 0 0 15.45 2
15:00 85 J/kg 7.6 K 0 % 0 % 0 % 0 m²/s² 0 0 17.47 2
16:00 35 J/kg 8.7 K 0 % 0 % 0 % 0 m²/s² 0 0 18.6 2
17:00 2 J/kg 9.8 K 0 % 0 % 0 % 0 m²/s² 0 0 18.2 2
18:00 0 J/kg 10.7 K 0 % 0 % 0 % 0 m²/s² 0 0 18.26 2
19:00 0 J/kg 10.9 K 0 % 0 % 0 % 0 m²/s² 0 0 17.38 1
20:00 0 J/kg 11.1 K 0 % 0 % 0 % 0 m²/s² 0 0 16.89 0
21:00 0 J/kg 10.8 K 0 % 0 % 0 % 0 m²/s² 0 0 16.02 0
22:00 0 J/kg 11.2 K 0 % 0 % 0 % 0 m²/s² 0 0 16.15 0
23:00 0 J/kg 11.3 K 0 % 0 % 0 % 0 m²/s² 0 0 16.13 0
 04:40     22:13    Daglengte: 17:33 Woensdag 29 Jun
00:00 0 J/kg 11.4 K 0 % 0 % 0 % 0 m²/s² 0 0 16.11 0
01:00 0 J/kg 11.1 K 0 % 0 % 0 % 0 m²/s² 0 0 16.08 0
02:00 0 J/kg 10.7 K 0 % 0 % 0 % 0 m²/s² 0 0 15.65 1
03:00 0 J/kg 0.0 K 0 % 0 % 0 % 0 m²/s² 0 0 13.83
Temp Baro Wind Neerslag
  EWN Forecast EWN WRFDA DWD ICON FMI HIRLAM MET Norway GFSWXSIM
 04:38     22:13    Daglengte: 17:35 Vandaag
05:00 16.8° 1013.7 hPa 1.6 m/s 0.0 mm 16.5° 1012.8 hPa 2.2 m/s 0.0 mm 16.3° 1013.8 hPa 1.0 m/s -2.0 mm 16.8° 1013.8 hPa 1.6 m/s 0.0 mm 16.9° 1013.1 hPa 2.5 m/s 15.5° 1013.0 hPa 1.0 m/s 0.0 mm
08:00 19.5° 1014.0 hPa 2.5 m/s 0.0 mm 21.1° 1013.3 hPa 3.1 m/s 0.0 mm 19.2° 1014.4 hPa 2.3 m/s 0.0 mm 20.4° 1013.7 hPa 2.5 m/s 0.0 mm 19.5° 1013.4 hPa 3.4 m/s 17.8° 1014.0 hPa 2.0 m/s 0.0 mm
11:00 22.8° 1013.9 hPa 3.6 m/s 0.0 mm 25.2° 1013.3 hPa 3.4 m/s 0.0 mm 22.3° 1014.2 hPa 3.0 m/s 0.0 mm 24.3° 1013.5 hPa 4.1 m/s 0.0 mm 22.7° 1013.5 hPa 4.0 m/s 21.3° 1014.0 hPa 3.0 m/s 0.3 mm
14:00 25.6° 1013.7 hPa 3.3 m/s 0.0 mm 27.0° 1013.3 hPa 3.4 m/s 0.1 mm 24.0° 1014.3 hPa 2.7 m/s 0.3 mm 27.1° 1013.6 hPa 4.9 m/s 0.0 mm 23.9° 1013.9 hPa 3.9 m/s 21.5° 1014.0 hPa 3.0 m/s 1.5 mm
17:00 22.2° 1014.4 hPa 2.4 m/s 3.7 mm 23.9° 1013.5 hPa 3.4 m/s 6.4 mm 21.8° 1015.1 hPa 1.4 m/s 3.1 mm 23.6° 1014.4 hPa 2.8 m/s 0.0 mm 23.0° 1014.9 hPa 4.5 m/s 20.4° 1015.0 hPa 3.0 m/s 2.3 mm
20:00 22.1° 1014.6 hPa 1.5 m/s 0.0 mm 20.5° 1014.6 hPa 1.5 m/s 14.7 mm 20.6° 1015.2 hPa 1.4 m/s 4.5 mm 22.4° 1014.6 hPa 2.5 m/s 0.0 mm 20.0° 1016.1 hPa 3.4 m/s 18.6° 1016.0 hPa 3.0 m/s 1.0 mm
23:00 18.5° 1015.8 hPa 2.1 m/s 0.0 mm 18.5° 1015.5 hPa 1.6 m/s 20.7 mm 18.4° 1015.8 hPa 0.7 m/s 0.0 mm 17.7° 1016.4 hPa 3.3 m/s 0.0 mm 14.7° 1017.5 hPa 2.8 m/s 16.9° 1017.0 hPa 2.0 m/s 0.2 mm
 04:38     22:13    Daglengte: 17:35 Morgen
02:00 16.8° 1015.2 hPa 2.5 m/s 0.0 mm 15.3° 1013.5 hPa 2.6 m/s 23.1 mm 17.5° 1015.4 hPa 1.7 m/s 0.0 mm 16.9° 1016.4 hPa 2.5 m/s 0.0 mm 13.5° 1017.4 hPa 1.8 m/s 15.8° 1017.0 hPa 2.0 m/s 0.0 mm
05:00 16.9° 1014.5 hPa 2.0 m/s 0.0 mm 15.5° 1014.3 hPa 3.2 m/s 23.1 mm 17.0° 1014.6 hPa 0.6 m/s 0.8 mm 16.5° 1015.6 hPa 2.3 m/s 0.0 mm 14.6° 1016.8 hPa 2.1 m/s 14.7° 1017.0 hPa 2.0 m/s 0.0 mm
08:00 18.0° 1014.0 hPa 2.5 m/s 0.0 mm 17.9° 1013.0 hPa 2.6 m/s 23.1 mm 18.2° 1014.1 hPa 1.0 m/s 0.0 mm 18.0° 1014.6 hPa 2.9 m/s 0.0 mm 15.9° 1016.0 hPa 2.7 m/s 15.3° 1017.0 hPa 2.0 m/s 0.3 mm
11:00 18.3° 1014.0 hPa 2.2 m/s 11.2 mm 17.8° 1012.7 hPa 6.7 m/s 39.5 mm 17.9° 1014.3 hPa 1.4 m/s 6.8 mm 21.6° 1014.2 hPa 1.8 m/s 0.0 mm 14.8° 1015.9 hPa 4.4 m/s 15.7° 1017.0 hPa 3.0 m/s 1.0 mm
14:00 18.1° 1013.7 hPa 3.5 m/s 19.0 mm 16.9° 1011.7 hPa 5.7 m/s 70.0 mm 17.2° 1014.2 hPa 2.3 m/s 2.6 mm 25.0° 1012.3 hPa 3.4 m/s 0.0 mm 13.5° 1014.9 hPa 5.1 m/s 16.5° 1015.0 hPa 4.0 m/s 1.3 mm
17:00 17.1° 1014.3 hPa 4.3 m/s 24.3 mm 14.9° 1012.4 hPa 6.4 m/s 98.4 mm 15.7° 1015.4 hPa 3.0 m/s 3.2 mm 27.0° 1009.5 hPa 5.6 m/s 0.0 mm 15.0° 1015.2 hPa 4.2 m/s 18.0° 1014.0 hPa 3.0 m/s 0.7 mm
20:00 16.6° 1014.7 hPa 3.8 m/s 0.0 mm 14.2° 1014.2 hPa 4.8 m/s 101.6 mm 15.6° 1016.4 hPa 3.2 m/s 0.0 mm 24.2° 1006.9 hPa 6.9 m/s 0.0 mm 13.5° 1016.5 hPa 3.2 m/s 18.0° 1015.0 hPa 4.0 m/s 0.5 mm
23:00 13.9° 1017.5 hPa 1.8 m/s 0.0 mm 13.6° 1015.6 hPa 2.4 m/s 101.6 mm 13.9° 1017.8 hPa 1.8 m/s 0.0 mm 12.6° 1018.2 hPa 2.1 m/s 16.8° 1017.0 hPa 4.0 m/s 0.3 mm
 04:39     22:13    Daglengte: 17:34 Dinsdag 28 Jun
02:00 13.3° 1017.7 hPa 1.7 m/s 0.0 mm 13.0° 1016.4 hPa 2.4 m/s 101.7 mm 13.2° 1017.7 hPa 1.1 m/s 0.0 mm 11.4° 1018.6 hPa 2.2 m/s 15.5° 1018.0 hPa 2.0 m/s 0.0 mm
05:00 12.5° 1018.1 hPa 1.9 m/s 11.4 mm 10.0° 1017.2 hPa 2.6 m/s 101.7 mm 12.7° 1018.0 hPa 1.1 m/s 0.2 mm 10.7° 1019.1 hPa 2.5 m/s 15.2° 1018.0 hPa 2.0 m/s 0.0 mm
08:00 15.3° 1019.0 hPa 2.4 m/s 0.0 mm 15.3° 1018.2 hPa 4.0 m/s 101.7 mm 15.3° 1019.2 hPa 2.0 m/s 0.0 mm 14.6° 1019.9 hPa 2.5 m/s 16.7° 1020.0 hPa 3.0 m/s 0.0 mm
11:00 18.5° 1019.6 hPa 2.9 m/s 0.0 mm 18.5° 1019.3 hPa 3.4 m/s 101.7 mm 18.5° 1019.7 hPa 2.8 m/s 0.0 mm 19.1° 1020.3 hPa 3.9 m/s 20.4° 1021.0 hPa 4.0 m/s 0.0 mm
14:00 20.3° 1019.4 hPa 3.3 m/s 0.0 mm 19.3° 1019.2 hPa 4.5 m/s 101.7 mm 20.6° 1019.4 hPa 3.0 m/s 0.0 mm 21.1° 1020.2 hPa 4.7 m/s 20.3° 1020.0 hPa 4.0 m/s 0.5 mm
17:00 21.2° 1019.7 hPa 3.0 m/s 0.0 mm 20.5° 1019.7 hPa 4.6 m/s 101.7 mm 21.3° 1019.8 hPa 2.6 m/s 0.0 mm 21.0° 1020.1 hPa 4.3 m/s 20.6° 1021.0 hPa 4.0 m/s 0.3 mm
20:00 19.3° 1019.6 hPa 2.1 m/s 0.0 mm 19.0° 1019.6 hPa 3.2 m/s 101.7 mm 19.4° 1019.6 hPa 1.9 m/s 0.0 mm 18.5° 1020.5 hPa 3.5 m/s 19.8° 1022.0 hPa 3.0 m/s 0.0 mm
23:00 13.8° 1020.3 hPa 1.4 m/s 0.0 mm 12.2° 1020.6 hPa 2.2 m/s 101.7 mm 14.2° 1020.2 hPa 1.2 m/s 0.0 mm 12.6° 1021.1 hPa 0.6 m/s 15.0° 1022.0 hPa 1.0 m/s 0.0 mm
 04:40     22:13    Daglengte: 17:33 Woensdag 29 Jun
02:00 11.9° 1020.2 hPa 1.3 m/s 0.0 mm 10.2° 1020.7 hPa 2.7 m/s 101.7 mm 12.3° 1020.0 hPa 0.9 m/s 0.0 mm 11.3° 1021.0 hPa 1.6 m/s 13.0° 1022.0 hPa 1.0 m/s 0.0 mm
05:00 11.6° 1021.0 hPa 1.3 m/s 11.6 mm 11.1° 1020.6 hPa 2.1 m/s 11.6 mm 12.9° 1022.0 hPa 1.0 m/s 0.0 mm
08:00 15.5° 1020.8 hPa 2.3 m/s 11.6 mm 17.1° 1020.4 hPa 3.0 m/s 11.6 mm 14.9° 1022.0 hPa 2.0 m/s 0.0 mm
11:00 19.5° 1020.7 hPa 2.4 m/s 11.6 mm 21.8° 1020.3 hPa 3.8 m/s 11.6 mm 18.7° 1022.0 hPa 2.0 m/s 0.0 mm
14:00 22.5° 1019.9 hPa 2.6 m/s 11.6 mm 23.5° 1019.6 hPa 4.4 m/s 11.6 mm 22.1° 1021.0 hPa 2.0 m/s 0.0 mm
17:00 22.9° 1019.4 hPa 3.4 m/s 11.6 mm 23.0° 1019.2 hPa 4.4 m/s 11.6 mm 22.9° 1020.0 hPa 3.0 m/s 0.0 mm
20:00 20.4° 1018.9 hPa 2.9 m/s 11.6 mm 20.0° 1018.5 hPa 2.9 m/s 11.6 mm 21.6° 1020.0 hPa 3.0 m/s 0.0 mm
23:00 15.5° 1019.0 hPa 2.3 m/s 11.6 mm 14.7° 1018.6 hPa 3.1 m/s 11.6 mm 18.0° 1020.0 hPa 2.0 m/s 0.0 mm
 04:41     22:12    Daglengte: 17:31 Donderdag 30 Jun
02:00 13.7° 1018.4 hPa 2.2 m/s 11.6 mm 13.0° 1018.3 hPa 2.8 m/s 11.6 mm 15.8° 1019.0 hPa 2.0 m/s 0.0 mm
05:00 12.9° 1018.1 hPa 2.2 m/s 11.6 mm 12.4° 1017.9 hPa 2.8 m/s 11.6 mm 14.5° 1019.0 hPa 2.0 m/s 0.0 mm
08:00 15.7° 1017.8 hPa 2.0 m/s 11.6 mm 18.3° 1017.4 hPa 2.2 m/s 11.6 mm 14.9° 1019.0 hPa 2.0 m/s 0.0 mm
11:00 18.9° 1017.5 hPa 2.3 m/s 11.6 mm 22.4° 1016.9 hPa 3.2 m/s 11.6 mm 17.8° 1019.0 hPa 2.0 m/s 0.0 mm
14:00 23.6° 1016.3 hPa 2.3 m/s 11.6 mm 24.2° 1016.0 hPa 3.3 m/s 11.6 mm 23.4° 1017.0 hPa 2.0 m/s 0.0 mm
17:00 23.9° 1015.4 hPa 3.4 m/s 11.6 mm 23.6° 1014.9 hPa 4.5 m/s 11.6 mm 24.9° 1017.0 hPa 3.0 m/s 0.0 mm
20:00 20.3° 1014.9 hPa 2.5 m/s 11.6 mm 19.4° 1014.2 hPa 3.8 m/s 11.6 mm 22.9° 1017.0 hPa 2.0 m/s 0.0 mm
23:00 14.8° 1014.3 hPa 2.1 m/s 11.6 mm 13.7° 1013.7 hPa 2.3 m/s 11.6 mm 18.1° 1016.0 hPa 2.0 m/s 0.0 mm
 04:41     22:12    Daglengte: 17:31 Vrijdag 01 Jul
02:00 14.7° 1013.4 hPa 2.1 m/s 11.6 mm 14.2° 1012.5 hPa 2.6 m/s 11.6 mm 16.4° 1016.0 hPa 2.0 m/s 0.0 mm
05:00 15.5° 1012.1 hPa 2.0 m/s 11.6 mm 15.9° 1011.2 hPa 2.2 m/s 11.6 mm 15.3° 1015.0 hPa 2.0 m/s 0.0 mm
08:00 17.1° 1011.4 hPa 3.0 m/s 11.6 mm 18.6° 1010.6 hPa 3.1 m/s 11.6 mm 16.6° 1014.0 hPa 3.0 m/s 0.0 mm
11:00 20.2° 1010.7 hPa 3.2 m/s 11.6 mm 23.2° 1009.9 hPa 3.9 m/s 11.6 mm 19.2° 1013.0 hPa 3.0 m/s 0.0 mm
14:00 25.7° 1010.4 hPa 4.3 m/s 11.6 mm 26.3° 1009.8 hPa 4.0 m/s 11.6 mm 25.5° 1012.0 hPa 5.0 m/s 0.0 mm
17:00 23.1° 1010.5 hPa 5.2 m/s 6.3 mm 22.4° 1010.4 hPa 5.6 m/s 12.3 mm 25.2° 1011.0 hPa 5.0 m/s 0.2 mm
20:00 18.9° 1011.3 hPa 4.6 m/s 12.9 mm 17.1° 1012.1 hPa 6.4 m/s 12.9 mm 24.1° 1011.0 hPa 4.0 m/s 0.0 mm
23:00 15.9° 1011.0 hPa 3.3 m/s 6.6 mm 13.9° 1013.8 hPa 4.4 m/s 12.9 mm 21.9° 1010.0 hPa 3.0 m/s 0.3 mm
 04:42     22:11    Daglengte: 17:29 Zaterdag 02 Jul
02:00 14.2° 1011.2 hPa 2.9 m/s 7.6 mm 12.0° 1014.8 hPa 2.9 m/s 12.9 mm 20.6° 1010.0 hPa 3.0 m/s 2.3 mm
05:00 13.3° 1011.2 hPa 2.8 m/s 7.0 mm 11.0° 1015.0 hPa 2.8 m/s 12.9 mm 20.2° 1010.0 hPa 3.0 m/s 1.0 mm
08:00 16.9° 1012.1 hPa 3.3 m/s 12.9 mm 16.0° 1015.4 hPa 4.4 m/s 12.9 mm 19.4° 1011.0 hPa 3.0 m/s 0.0 mm
11:00 18.9° 1013.7 hPa 5.2 m/s 6.6 mm 18.5° 1015.7 hPa 5.8 m/s 12.9 mm 19.9° 1013.0 hPa 5.0 m/s 0.2 mm
14:00 19.9° 1013.8 hPa 5.5 m/s 13.0 mm 19.4° 1016.0 hPa 5.4 m/s 13.0 mm 21.6° 1013.0 hPa 6.0 m/s 0.0 mm
17:00 19.7° 1014.5 hPa 6.3 m/s 13.8 mm 19.4° 1016.0 hPa 6.0 m/s 13.8 mm 20.8° 1014.0 hPa 7.0 m/s 0.0 mm
20:00 18.2° 1014.4 hPa 5.6 m/s 7.1 mm 17.8° 1015.8 hPa 5.5 m/s 13.9 mm 19.6° 1014.0 hPa 6.0 m/s 0.3 mm
23:00 14.2° 1015.3 hPa 4.3 m/s 13.9 mm 13.6° 1016.0 hPa 4.1 m/s 13.9 mm 16.0° 1015.0 hPa 5.0 m/s 0.0 mm
 04:43     22:11    Daglengte: 17:28 Zondag 03 Jul
02:00 13.5° 1014.9 hPa 4.8 m/s 13.9 mm 13.1° 1014.9 hPa 4.7 m/s 13.9 mm 14.7° 1015.0 hPa 5.0 m/s 0.0 mm
08:00 15.2° 1014.0 hPa 5.4 m/s 13.9 mm 16.2° 1013.4 hPa 6.4 m/s 13.9 mm 14.9° 1016.0 hPa 5.0 m/s 0.0 mm
14:00 18.7° 1012.9 hPa 6.4 m/s 8.0 mm 19.2° 1012.3 hPa 6.2 m/s 14.8 mm 18.6° 1015.0 hPa 7.0 m/s 1.3 mm
20:00 15.8° 1012.6 hPa 5.9 m/s 8.2 mm 15.5° 1011.9 hPa 5.9 m/s 16.0 mm 16.9° 1015.0 hPa 6.0 m/s 0.3 mm
 04:44     22:10    Daglengte: 17:26 Maandag 04 Jul
02:00 12.4° 1010.8 hPa 4.4 m/s 16.4 mm 12.4° 1010.8 hPa 4.4 m/s 16.4 mm
08:00 13.5° 1008.8 hPa 5.6 m/s 17.0 mm 13.5° 1008.8 hPa 5.6 m/s 17.0 mm
14:00 17.7° 1009.8 hPa 9.3 m/s 18.9 mm 17.7° 1009.8 hPa 9.3 m/s 18.9 mm
20:00 14.4° 1011.9 hPa 9.0 m/s 19.5 mm 14.4° 1011.9 hPa 9.0 m/s 19.5 mm
 04:45     22:09    Daglengte: 17:24 Dinsdag 05 Jul
02:00 13.8° 1012.6 hPa 8.8 m/s 19.6 mm 13.7° 1012.6 hPa 8.8 m/s 19.6 mm
08:00 14.8° 1014.0 hPa 8.4 m/s 19.7 mm 14.8° 1014.0 hPa 8.4 m/s 19.7 mm
14:00 18.3° 1015.7 hPa 8.7 m/s 19.9 mm 18.3° 1015.7 hPa 8.7 m/s 19.9 mm
20:00 16.0° 1016.1 hPa 6.7 m/s 20.8 mm 16.0° 1016.1 hPa 6.7 m/s 20.8 mm
 04:46     22:08    Daglengte: 17:22 Woensdag 06 Jul
02:00 12.6° 1014.4 hPa 2.8 m/s 0.2 mm
08:00 15.5° 1014.2 hPa 3.6 m/s 0.5 mm
14:00 19.5° 1014.7 hPa 4.8 m/s 0.8 mm
20:00 17.1° 1014.1 hPa 3.8 m/s 0.9 mm
 04:48     22:08    Daglengte: 17:20 Donderdag 07 Jul
02:00 13.0° 1014.0 hPa 2.8 m/s 0.4 mm
08:00 15.5° 1013.3 hPa 3.4 m/s 0.3 mm
14:00 19.2° 1013.6 hPa 4.8 m/s 1.0 mm
20:00 16.7° 1013.5 hPa 4.8 m/s 0.3 mm
 04:49     22:07    Daglengte: 17:18 Vrijdag 08 Jul
02:00 12.3° 1013.8 hPa 3.2 m/s 0.2 mm
08:00 14.9° 1013.9 hPa 4.1 m/s 0.2 mm
14:00 19.1° 1014.2 hPa 4.5 m/s 0.5 mm
20:00 16.6° 1013.5 hPa 4.3 m/s 0.8 mm
 04:50     22:06    Daglengte: 17:16 Zaterdag 09 Jul
02:00 12.5° 1013.6 hPa 3.4 m/s 0.1 mm
08:00 15.1° 1013.5 hPa 4.3 m/s 0.1 mm
14:00 18.8° 1013.8 hPa 5.4 m/s 0.3 mm
20:00 16.6° 1013.4 hPa 4.5 m/s 0.5 mm
 04:51     22:05    Daglengte: 17:14 Zondag 10 Jul
02:00 12.1° 1012.8 hPa 2.6 m/s 0.2 mm
08:00 15.0° 1012.1 hPa 2.8 m/s 0.2 mm
14:00 19.5° 1012.2 hPa 3.6 m/s 0.6 mm
20:00 16.9° 1011.5 hPa 3.2 m/s 1.2 mm
 04:53     22:04    Daglengte: 17:11 Maandag 11 Jul
02:00 12.6° 1011.1 hPa 2.2 m/s 0.1 mm
FMI Hirlam - 7.5 km EWN WRFDA - 12 km DWD ICON - 7 km GFS - 25 km Basiskaart






























































Updatetijd (Europe/Amsterdam) Resolutie Lengte Stap
FMI Hirlam 01:45, 07:45, 13:45, 19:45 7.5 km 49h 1h
EWN WRFDA 22:30, 04:30, 10:30, 16:30 12 km 73h 1h
DWD ICON 23:45, 05:45, 11:45, 17:45 7 km 75h 1h
GFS 02:15, 08:15, 14:15, 20:15 25 km 237h 3h
30+ mm
25-30 mm
20-25 mm
15-20 mm
10-15 mm
6-10 mm
4-6 mm
2-4 mm
1-2 mm
0.5-1 mm
0.2-0.5 mm
0.1-0.2 mm
30+ mm
25-30 mm
20-25 mm
15-20 mm
10-15 mm
6-10 mm
4-6 mm
2-4 mm